Regional Weather Roundup
Issued by NWS Midland/Odessa, TX

Skip options and go directly to product.
Home | Oldest Version | Next Version | Current Version | All | Text Only | Save Text | Print | Product List | Glossary On

Skip product version selection by date and time.   
165
ASUS44 KMAF 301701
RWRMAF
MIDLAND AREA WEATHER ROUNDUP
NATIONAL WEATHER SERVICE MIDLAND TX
1200 PM CDT THU JUN 30 2016

...IN SOUTHWEST TEXAS AND SOUTHEAST NEW MEXICO...

CITY           SKY/WX    TMP DP  RH WIND       PRES   REMARKS
ALPINE         MOSUNNY   83  55  38 NE7       30.25S
ANDREWS        FAIR      88  58  35 SE9       30.13F
ARTESIA        SUNNY     88  59  37 SE8       30.12F
BIG SPRING     SUNNY     82  61  48 CALM      30.12F
CARLSBAD       SUNNY     88  56  33 SE9       30.10F
DRYDEN           N/A     90  65  43 NE6       30.05F
FORT STOCKTON  SUNNY     88  61  40 VRB6      30.10F
GUAD PASS      CLOUDY    76  55  48 CALM      30.27S
HOBBS          SUNNY     86  54  32 E12       30.16F
MARFA          SUNNY    N/A N/A N/A CALM      30.23F
MIDLAND AIRPK  SUNNY     87  62  44 SE3       30.13S
MIDLAND INTL   SUNNY     86  63  45 SE5       30.12S
ODESSA         SUNNY     86  63  45 SE9       30.13S
PECOS          SUNNY     89  57  33 W3        30.07F
PRESIDIO       FAIR      89  58  35 NE7       30.07F
SEMINOLE       SUNNY     88  56  33 SE7       30.14F
SNYDER           N/A     84  65  51 CALM      30.10F
WINK           SUNNY     86  63  45 E7        30.09S
$$
...OTHER STATIONS IN TEXAS...

CITY           SKY/WX    TMP DP  RH WIND       PRES   REMARKS
ABILENE        SUNNY     87  65  47 VRB3      30.08S
AMARILLO       SUNNY     84  61  45 S9        30.13F
AUSTIN         PTSUNNY   89  71  55 E7        30.01S
BROWNSVILLE    MOSUNNY   92  72  51 S6        29.97R
CORPUS CHRISTI PTSUNNY   93  71  48 CALM      29.97F HX 100
DALLAS FTW     PTSUNNY   92  67  43 SW10      30.02F
DEL RIO        MOSUNNY   90  69  50 SE7       30.00F
EL PASO        PTSUNNY   86  55  34 SE6       30.12F
HOUSTON INT    MOSUNNY   89  72  56 E8        29.98F
LUBBOCK        MOSUNNY   87  60  40 SW9       30.12F
SAN ANGELO     SUNNY     87  65  47 CALM      30.08S
SAN ANTONIO    PTSUNNY   88  70  55 N8        30.01F
WACO           PTSUNNY   89  68  49 S6        30.03S
WICHITA FALLS  NOT AVBL
$$
...OTHER LOCATIONS IN NEW MEXICO...

CITY           SKY/WX    TMP DP  RH WIND       PRES   REMARKS
ALAMAGORDO     SUNNY     86  52  30 SE6       30.16F
ALBUQUERQUE    PTSUNNY   76  53  44 W7        30.26S
CANNON AFB     SUNNY     83  60  45 S13       30.17F
CLOVIS         MOSUNNY   82  59  44 S13G21    30.17F
HOLLOMAN AFB   NOT AVBL
ROSWELL        SUNNY     89  55  31 SE7       30.12F
RUIDOSO          N/A     77  39  25 MISG      30.35F
SANTA FE       CLOUDY    80  47  31 SW14G20   30.30F
TRUTH OR CONSE MOSUNNY   85  51  31 E8        30.18F
TUCUMCARI      MOSUNNY   86  55  34 W7G17     30.12F
$$

USA.gov is the U.S. government's official web portal to all federal, state and local government web resources and services.